TAP1929 LPPR-LPPT

Flight info

Callsign TAP1929
Flight time 0h 39m
Altitude 29000
Route MANIK A5 XAMAX
Aircraft A20N/M-SDE2E3FGHIRWXY/LB1

Departure

Time 2026-05-04 15:14
Airport Francisco de Sá Carneiro Airport (LPPR)

Arrival

Time 2026-05-04 15:53
Airport Lisbon Humberto Delgado Airport (LPPT)
Time Latitude Longitude Altitude Speed Heading
2026-05-04 14:49 41.23640 -8.67241 237 ft 0 kts 79°
2026-05-04 15:05 41.23639 -8.67251 235 ft 2 kts 79°
2026-05-04 15:05 41.23636 -8.67271 235 ft 2 kts 88°
2026-05-04 15:05 41.23637 -8.67290 235 ft 2 kts 103°
2026-05-04 15:06 41.23642 -8.67309 235 ft 2 kts 118°
2026-05-04 15:06 41.23651 -8.67326 235 ft 2 kts 133°
2026-05-04 15:06 41.23663 -8.67338 235 ft 2 kts 148°
2026-05-04 15:07 41.23682 -8.67349 235 ft 1 kts 168°
2026-05-04 15:07 41.23684 -8.67349 235 ft 0 kts 167°
2026-05-04 15:08 41.23683 -8.67349 235 ft 0 kts 167°
2026-05-04 15:08 41.23660 -8.67372 235 ft 7 kts 240°
2026-05-04 15:09 41.23640 -8.67445 235 ft 9 kts 252°
2026-05-04 15:09 41.23624 -8.67533 235 ft 10 kts 262°
2026-05-04 15:09 41.23618 -8.67574 235 ft 0 kts 256°
2026-05-04 15:10 41.23612 -8.67608 235 ft 5 kts 257°
2026-05-04 15:10 41.23604 -8.67660 235 ft 0 kts 259°
2026-05-04 15:11 41.23604 -8.67663 235 ft 1 kts 259°
2026-05-04 15:11 41.23602 -8.67673 235 ft 0 kts 259°
2026-05-04 15:11 41.23602 -8.67675 235 ft 0 kts 259°
2026-05-04 15:12 41.23597 -8.67711 235 ft 11 kts 259°
2026-05-04 15:12 41.23616 -8.67808 235 ft 12 kts 325°
2026-05-04 15:12 41.23629 -8.67816 235 ft 0 kts 344°
2026-05-04 15:13 41.23809 -8.67864 235 ft 65 kts 349°
2026-05-04 15:13 41.24501 -8.68044 236 ft 133 kts 348°
2026-05-04 15:14 41.25566 -8.68305 477 ft 165 kts 347°
2026-05-04 15:14 41.26653 -8.68597 1228 ft 162 kts 345°
2026-05-04 15:14 41.27737 -8.68914 1998 ft 162 kts 345°
2026-05-04 15:14 41.28861 -8.69237 2515 ft 174 kts 345°
2026-05-04 15:15 41.30096 -8.69586 2973 ft 190 kts 346°
2026-05-04 15:15 41.31444 -8.69958 3451 ft 207 kts 346°
2026-05-04 15:15 41.32912 -8.70378 3943 ft 224 kts 341°
2026-05-04 15:16 41.34804 -8.73676 4872 ft 259 kts 268°
2026-05-04 15:16 41.34234 -8.75926 5673 ft 267 kts 233°
2026-05-04 15:16 41.30882 -8.77910 7408 ft 281 kts 191°
2026-05-04 15:17 41.28933 -8.78274 8235 ft 287 kts 191°
2026-05-04 15:17 41.24967 -8.79152 9969 ft 294 kts 193°
2026-05-04 15:17 41.22946 -8.79676 10724 ft 302 kts 193°
2026-05-04 15:18 41.20844 -8.80255 11209 ft 319 kts 194°
2026-05-04 15:18 41.18624 -8.80888 11716 ft 335 kts 194°
2026-05-04 15:18 41.16319 -8.81557 12493 ft 340 kts 194°
2026-05-04 15:19 41.11720 -8.82908 14142 ft 345 kts 194°
2026-05-04 15:19 41.09367 -8.83604 14931 ft 347 kts 195°
2026-05-04 15:19 41.04617 -8.85017 16440 ft 353 kts 195°
2026-05-04 15:20 41.02236 -8.85725 17186 ft 356 kts 195°
2026-05-04 15:20 40.99802 -8.86448 17927 ft 358 kts 196°
2026-05-04 15:20 40.97387 -8.87165 18637 ft 361 kts 196°
2026-05-04 15:20 40.94929 -8.87895 19342 ft 363 kts 197°
2026-05-04 15:21 40.92483 -8.88623 20024 ft 365 kts 197°
2026-05-04 15:21 40.89986 -8.89366 20687 ft 367 kts 197°
2026-05-04 15:21 40.84962 -8.90859 21938 ft 373 kts 197°
2026-05-04 15:22 40.82433 -8.91608 22537 ft 376 kts 198°
2026-05-04 15:22 40.79881 -8.92364 22986 ft 379 kts 198°
2026-05-04 15:22 40.74737 -8.93881 23190 ft 377 kts 198°
2026-05-04 15:23 40.72169 -8.94636 23237 ft 376 kts 198°
2026-05-04 15:23 40.69643 -8.95380 23178 ft 375 kts 198°
2026-05-04 15:23 40.67114 -8.96124 23146 ft 374 kts 198°
2026-05-04 15:23 40.64547 -8.96879 23129 ft 374 kts 198°
2026-05-04 15:24 40.59499 -8.98363 23093 ft 374 kts 198°
2026-05-04 15:24 40.54399 -8.99861 23069 ft 374 kts 198°
2026-05-04 15:25 40.51886 -9.00598 23065 ft 375 kts 198°
2026-05-04 15:25 40.49337 -9.01345 23074 ft 375 kts 198°
2026-05-04 15:25 40.46780 -9.02093 23079 ft 375 kts 198°
2026-05-04 15:26 40.41674 -9.03584 23081 ft 376 kts 198°
2026-05-04 15:26 40.39139 -9.04324 23082 ft 376 kts 198°
2026-05-04 15:26 40.34031 -9.05812 23082 ft 376 kts 198°
2026-05-04 15:27 40.31472 -9.06557 23082 ft 376 kts 198°
2026-05-04 15:27 40.26401 -9.08032 23078 ft 376 kts 198°
2026-05-04 15:28 40.21290 -9.09516 23076 ft 376 kts 198°
2026-05-04 15:28 40.18713 -9.10263 23075 ft 376 kts 198°
2026-05-04 15:28 40.13609 -9.11742 23074 ft 376 kts 198°
2026-05-04 15:29 40.11068 -9.12478 23073 ft 376 kts 198°
2026-05-04 15:30 40.00843 -9.15430 23073 ft 377 kts 198°
2026-05-04 15:30 39.93176 -9.17639 23070 ft 377 kts 198°
2026-05-04 15:31 39.88059 -9.19110 23052 ft 377 kts 199°
2026-05-04 15:31 39.85472 -9.19852 23043 ft 377 kts 199°
2026-05-04 15:32 39.77760 -9.22063 23054 ft 379 kts 199°
2026-05-04 15:32 39.72600 -9.23540 23069 ft 379 kts 199°
2026-05-04 15:33 39.67460 -9.25008 23071 ft 379 kts 199°
2026-05-04 15:34 39.59707 -9.27219 23071 ft 379 kts 199°
2026-05-04 15:34 39.57137 -9.27951 23067 ft 379 kts 199°
2026-05-04 15:34 39.52007 -9.29410 23064 ft 379 kts 199°
2026-05-04 15:35 39.46853 -9.30874 23051 ft 380 kts 199°
2026-05-04 15:35 39.44248 -9.31613 22839 ft 378 kts 199°
2026-05-04 15:35 39.41698 -9.32334 22504 ft 375 kts 199°
2026-05-04 15:36 39.36650 -9.33762 21610 ft 372 kts 199°
2026-05-04 15:36 39.34112 -9.34480 21077 ft 370 kts 199°
2026-05-04 15:36 39.31602 -9.35191 20535 ft 369 kts 199°
2026-05-04 15:37 39.29130 -9.35891 19994 ft 367 kts 199°
2026-05-04 15:37 39.26648 -9.36593 19415 ft 365 kts 199°
2026-05-04 15:37 39.24179 -9.37291 18853 ft 363 kts 198°
2026-05-04 15:37 39.21727 -9.37980 18301 ft 361 kts 198°
2026-05-04 15:38 39.19257 -9.38673 17745 ft 358 kts 198°
2026-05-04 15:38 39.16861 -9.39346 17196 ft 356 kts 198°
2026-05-04 15:38 39.14433 -9.40029 16639 ft 353 kts 198°
2026-05-04 15:38 39.12046 -9.40699 16092 ft 350 kts 198°
2026-05-04 15:39 39.09671 -9.41365 15545 ft 348 kts 197°
2026-05-04 15:39 39.07336 -9.42020 15008 ft 346 kts 197°
2026-05-04 15:39 39.02663 -9.43331 13913 ft 340 kts 197°
2026-05-04 15:40 39.00384 -9.43965 13374 ft 337 kts 197°
2026-05-04 15:40 38.98103 -9.44604 12831 ft 333 kts 197°
2026-05-04 15:40 38.95845 -9.45241 12328 ft 330 kts 197°
2026-05-04 15:40 38.93630 -9.45863 11974 ft 323 kts 197°
2026-05-04 15:41 38.91465 -9.46468 11695 ft 312 kts 197°
2026-05-04 15:41 38.89384 -9.47049 11457 ft 301 kts 197°
2026-05-04 15:41 38.87372 -9.47609 11227 ft 292 kts 197°
2026-05-04 15:41 38.85394 -9.48161 11011 ft 284 kts 197°
2026-05-04 15:42 38.83619 -9.48658 10828 ft 277 kts 197°
2026-05-04 15:42 38.81684 -9.49197 10647 ft 275 kts 197°
2026-05-04 15:42 38.79820 -9.49717 10488 ft 274 kts 197°
2026-05-04 15:42 38.77945 -9.50241 10341 ft 273 kts 196°
2026-05-04 15:43 38.76094 -9.50756 10208 ft 272 kts 196°
2026-05-04 15:43 38.74253 -9.51267 10060 ft 272 kts 196°
2026-05-04 15:43 38.72397 -9.51784 9713 ft 273 kts 196°
2026-05-04 15:43 38.70494 -9.52070 9188 ft 281 kts 176°
2026-05-04 15:44 38.68665 -9.51171 8305 ft 293 kts 142°
2026-05-04 15:44 38.67334 -9.49211 7575 ft 292 kts 124°
2026-05-04 15:44 38.66257 -9.47056 6902 ft 288 kts 122°
2026-05-04 15:44 38.65160 -9.44931 6379 ft 278 kts 125°
2026-05-04 15:45 38.64061 -9.42979 6025 ft 272 kts 127°
2026-05-04 15:45 38.62914 -9.41067 5699 ft 270 kts 128°
2026-05-04 15:45 38.61749 -9.39195 5382 ft 269 kts 129°
2026-05-04 15:45 38.60582 -9.37345 5229 ft 259 kts 129°
2026-05-04 15:46 38.59479 -9.35610 5205 ft 244 kts 129°
2026-05-04 15:46 38.58432 -9.33969 5180 ft 233 kts 129°
2026-05-04 15:46 38.57445 -9.32391 5126 ft 221 kts 123°
2026-05-04 15:46 38.56987 -9.30601 4988 ft 211 kts 81°
2026-05-04 15:47 38.57423 -9.28919 4843 ft 198 kts 61°
2026-05-04 15:47 38.58003 -9.27328 4553 ft 192 kts 62°
2026-05-04 15:47 38.58524 -9.25836 4295 ft 179 kts 63°
2026-05-04 15:47 38.59056 -9.24460 4042 ft 165 kts 47°
2026-05-04 15:48 38.59877 -9.23545 3817 ft 150 kts 27°
2026-05-04 15:48 38.60784 -9.22916 3627 ft 147 kts 20°
2026-05-04 15:48 38.62637 -9.21893 3300 ft 140 kts 17°
2026-05-04 15:49 38.63524 -9.21421 3114 ft 138 kts 18°
2026-05-04 15:49 38.64408 -9.20948 2949 ft 137 kts 18°
2026-05-04 15:49 38.65294 -9.20472 2781 ft 137 kts 18°
2026-05-04 15:49 38.66174 -9.19997 2610 ft 137 kts 18°
2026-05-04 15:50 38.67048 -9.19527 2438 ft 136 kts 18°
2026-05-04 15:50 38.67912 -9.19060 2250 ft 136 kts 18°
2026-05-04 15:50 38.68787 -9.18588 2055 ft 135 kts 17°
2026-05-04 15:50 38.69648 -9.18126 1868 ft 135 kts 18°
2026-05-04 15:51 38.70512 -9.17664 1688 ft 134 kts 18°
2026-05-04 15:51 38.71383 -9.17195 1508 ft 134 kts 18°
2026-05-04 15:51 38.72244 -9.16722 1327 ft 133 kts 17°
2026-05-04 15:51 38.73102 -9.16277 1152 ft 133 kts 17°
2026-05-04 15:52 38.73962 -9.15823 961 ft 133 kts 18°
2026-05-04 15:52 38.74810 -9.15360 778 ft 133 kts 18°
2026-05-04 15:52 38.75668 -9.14898 617 ft 132 kts 17°
2026-05-04 15:52 38.76511 -9.14457 432 ft 130 kts 18°
2026-05-04 15:53 38.77304 -9.14041 382 ft 94 kts 20°
2026-05-04 15:53 38.77714 -9.13820 381 ft 55 kts 21°
2026-05-04 15:53 38.78052 -9.13640 381 ft 49 kts 17°
2026-05-04 15:53 38.78238 -9.13533 381 ft 13 kts 44°
2026-05-04 15:54 38.78191 -9.13458 381 ft 13 kts 164°
2026-05-04 15:54 38.78098 -9.13428 381 ft 14 kts 168°
2026-05-04 15:54 38.77998 -9.13407 381 ft 14 kts 170°
2026-05-04 15:54 38.77882 -9.13376 381 ft 17 kts 168°
2026-05-04 15:55 38.77761 -9.13343 381 ft 18 kts 168°
2026-05-04 15:55 38.77636 -9.13319 381 ft 18 kts 180°
2026-05-04 15:55 38.77509 -9.13298 381 ft 18 kts 168°
2026-05-04 15:55 38.77381 -9.13265 381 ft 18 kts 170°
2026-05-04 15:56 38.77252 -9.13237 381 ft 19 kts 169°
2026-05-04 15:56 38.77154 -9.13205 381 ft 9 kts 130°
2026-05-04 15:56 38.77155 -9.13151 381 ft 4 kts 77°
2026-05-04 15:56 38.77159 -9.13128 381 ft 0 kts 77°